DMSP 5D-2 F13 DEB, 40577

Orbit data source: Space-Track

DMSP 5D-2 F13 DEB, 40577 is space debris in SSO originally from a launch on Fri, 24 Mar 1995 UTC launched from the Air Force Western Test Range (AFWTR). Debris objects in space refer to the collection of defunct objects orbiting the Earth. Examples of debris include non-operational satellites, rocket bodies, and fragments generated from explosions, collisions, or faulty payload assembly.

Loading next visibility...
Identifier
40577, 1995-015EL
Orbit
SSO
Country
Flag of USUS
Related business
Manufacturer
Unknown
Mission
Spacecraft
Bus & Motor
Unknown
Mass
Unknown
Launch date (UTC)
1995-03-24 (31 years ago)
Launch vehicle
Unknown
Launch site
Air Force Western Test Range (AFWTR)
Object type
Payload
Rocket body
Debris
Shape & HBR
Unknown shape, 0.1 m
Radar Cross Section
Small (<0.1 m²)

Expand to show TLE details & history
Last TLE update: 22 hours ago

TLE from 22 hours ago
0 DMSP 5D-2 F13 DEB
1 40577U 95015EL  25295.56139886  .00008820  00000-0  23948-2 0  9998
2 40577  98.6655 335.1052 0014615 162.3420 197.8283 14.47737781549148
Epoch: 2025-10-22T13:28Z
TLE epoch observation values (Epoch: 2025-10-22T13:28:24.861Z)
Latitude
-0°
Longitude
101.76838°
Altitude
745.898 km
Speed
7.477 km/s
True Right ascension
22h 20m 25s
True Declination
0° 00' 00"
Sunlit
Object was in full shadow at epoch
Visualization orbit readout
Latitude
Unknown
Longitude
Unknown
Altitude
Unknown
Speed
Unknown
Apparent Right ascension
Unknown
Apparent Declination
Unknown
Sunlit
N/A
Visualization observer readout
Local Sidereal Time
06:33:03
Azimuth
Unknown
Elevation
Unknown
Doppler factor
Unknown
Orbital elements
Apogee altitude
740.555 km
Perigee altitude
719.777 km
Semi-major axis
7,108.303 km
Eccentricity
0.00146
Inclination
98.6655°
RAAN
335.1052°
Arg. of periapsis
162.342°
True anomaly
197.77711°
Mean anomaly
197.8283°
Eccentric anomaly
197.8027°
Mean motion
3.62155 °/min
Orbital period
99.41 mins
BSTAR
0.0023948

Documentation

Showing up to 5 results
|